Location: Allie Creek
(37.5926°N, 89.8526°W)
Time: 04:43:30
(UTC+00:00)

Delta 2 Rocket - Pass Details

Date: 26 September 2023
Orbit: 405 x 715 km, 35.6° (Epoch: 29 November)

Event Time Altitude Azimuth Distance (km) Brightness Sun altitude
Exits shadow 09:17:22 31° 124° (ESE) 1,216 5.2 -30.3°
Drops below altitude 10° 09:20:46 10° 91° (E) 2,200 7.1 -29.7°
Enters shadow 10:17:36 -70° 263° (W) 12,391 10.2 -19.1°
Maximum altitude 10:57:16 69° 174° (S) 769 4.0 -11.3°
